Location: Helsinki
(60.1699°N, 24.9384°E)
Time: 20:50:39
(UTC+02:00)

Transit 4A - Pass Details

Date: 03 November 2020
Orbit: 862 x 982 km, 66.8° (Epoch: 30 November)

Event Time Altitude Azimuth Distance (km) Brightness Sun altitude
Rises 23:38:00 0° 312° (NW) 3,699 11.5 -45.0°
Enters shadow 23:40:58 10° 300° (WNW) 2,780 10.7 -45.1°
Reaches altitude 10° 23:41:06 10° 299° (WNW) 2,745 - -45.1°
Maximum altitude 23:45:55 23° 250° (WSW) 1,949 - -45.1°
Drops below altitude 10° 23:50:42 10° 201° (SSW) 2,702 - -45.2°
Sets 23:53:44 0° 188° (S) 3,628 - -45.2°
